Content
SEND FEEDBACK

Daily
Averages
Monthly
Summary
India

JAIPUR, INDIA


Home > Asia > India
Elevation: 1279 feet     Latitude: 26 49N     Longitude: 075 48E

WEATHER
 
SELECT A DAY
Number of Records: 97,758;   Date Range: 10/1/99 - 7/30/14
 
SHARE

PRINT THIS DATA

[ ← Previous Day ]
WEATHER ALMANAC - MARCH 19, 2013
[ Next Day → ]
[ °C ]   °F
Weather ElementAverageHighLow
Temperature80.8 °F95 °F (4:00 pm)67 °F (5:30 am)
Dewpoint40.2 °F48.2 °F (6:00 am)28.4 °F (5:00 pm)
Humidity25.1 %49 % (6:00 am)9 % (11:30 am)
Barometer29.85 in30.12 in (8:30 am)29.76 in (8:30 pm)
Wind Speed3.4 mph11.5 mph (2:00 pm)
Weather ElementAverage
Visibility2.1 mi
Wind DirectionESE (106.2 °)

Weather ElementTotal
Precipitation---
Cooling Degree Days16 (Base 65)
Growing Degree Days31 (Base 50)
Averaged from 25 records on March 19, 2013
WEATHER CONDITIONS BREAKOUT
WIND DIRECTION BREAKOUT
WEATHER BY HOUR - MARCH 19, 2013
[ °C ]   °F
Local TimeTemperatureDewpointHumidityBarometerVisibilityWind DirectionWind SpeedGust SpeedPrecipitationEventsConditions
1:00 AM73.4 °F44.6 °F36 %29.86 in1.9 miCalmHaze
2:00 AM69.8 °F44.6 °F40 %29.83 in1.9 miCalmHaze
2:30 AM69.0 °F47.0 °F33 %29.80 in1.0 miCalmHaze
4:00 AM68.0 °F46.4 °F46 %29.83 in1.9 miCalmHaze
5:00 AM68.0 °F46.4 °F46 %29.83 in1.9 miCalmHaze
5:30 AM67.0 °F46.0 °F36 %29.80 in1.0 miCalmHaze
6:00 AM68.0 °F48.2 °F49 %29.83 in1.9 miCalmHaze
7:00 AM68.0 °F48.2 °F49 %29.86 in1.9 miCalmHaze
8:00 AM75.2 °F48.2 °F38 %29.89 in1.9 miCalmHaze
8:30 AM78.0 °F46.0 °F22 %30.12 in2.0 miWest (270°)6.9 mphHaze
9:00 AM80.6 °F41.0 °F24 %29.92 in1.9 miWest (270°)5.8 mphHaze
10:00 AM84.2 °F42.8 °F23 %29.92 in2.2 miVariable2.3 mphHaze
11:00 AM87.8 °F39.2 °F18 %29.92 in2.2 miWest (280°)5.8 mphHaze
11:30 AM90.0 °F38.0 °F9 %29.81 in2.0 miWSW (250°)6.9 mphHaze
12:00 PM91.4 °F37.4 °F15 %29.92 in2.5 miWest (270°)5.8 mphHaze
1:00 PM93.2 °F32.0 °F11 %29.86 in3.1 miVariable8.1 mphHaze
2:00 PM93.2 °F30.2 °F11 %29.83 in3.1 miWest (270°)11.5 mphHaze
3:00 PM93.2 °F30.2 °F11 %29.83 in3.1 miWNW (300°)6.9 mphHaze
4:00 PM95.0 °F30.2 °F10 %29.80 in3.1 miVariable8.1 mphHaze
5:00 PM93.2 °F28.4 °F10 %29.80 in3.1 miWNW (300°)4.6 mphHaze
6:00 PM91.4 °F28.4 °F10 %29.80 in3.1 miVariable4.6 mphHaze
7:00 PM87.8 °F33.8 °F15 %29.83 in2.5 miNNE (20°)3.5 mphHaze
8:30 PM85.0 °F38.0 °F10 %29.76 in1.0 miCalmHaze
11:00 PM75.2 °F42.8 °F31 %29.89 in1.6 miVariable3.5 mphHaze
11:30 PM74.0 °F46.0 °F25 %29.81 in1.0 miCalmHaze
Hourly data recorded from VIJP, located miles away from Jaipur, India







STORIES FROM OUR PARTNERS